Location: Caterham
(51.2667°N, 0.0833°W)
Time: 22:30:27
(UTC+00:00)

Daily predictions for brighter satellites

Satellite Brightness Start Highest point End
(mag) Time Altitude Azimuth Time Altitude Azimuth Time Altitude Azimuth
Radarsat Rocket 4.4 17:37:10 10° SE 17:42:47 46° ENE 17:48:55 10° N
Meteor 1-11 4.3 17:38:12 10° S 17:43:46 66° E 17:49:29 10° NNE
CZ-2D R/B 2.7 17:43:27 10° SSE 17:46:31 85° WSW 17:49:35 10° NNW
Cosmos 2016 Rocket 4.2 17:40:23 10° N 17:46:40 84° W 17:52:59 10° S
Cosmos 2297 Rocket 2.8 17:41:36 10° S 17:46:42 37° ESE 17:51:51 10° NE
SAR-Lupe-5 4.2 17:50:54 10° NNE 17:53:22 53° ESE 17:55:44 10° S
NOSS 0 Rocket 4.2 17:47:57 10° NW 17:54:13 76° WSW 18:00:25 10° SSE
Cosmos 1814 Rocket 4.2 17:51:01 10° SSW 17:56:17 76° WNW 18:01:32 10° NNE
Tiangong 0.6 17:56:52 10° S 17:57:25 10° SSE 17:57:58 10° SSE
Cosmos 1867 4.1 17:52:16 10° SW 17:57:39 61° NW 18:03:06 10° NE
Cosmos 158 Rocket 4.0 17:53:02 10° SSW 17:57:52 77° WNW 18:02:47 10° NNE
SeaSat 1 2.5 17:53:22 10° SSE 17:58:16 86° WSW 18:03:13 10° NNW
SJ-6B 4.0 17:56:56 10° ESE 17:59:16 17° ENE 18:01:37 10° NNE
Cosmos 2233 Rocket 4.1 17:54:12 10° N 18:00:30 87° W 18:06:50 10° S
Meteor 2-1 Rocket 4.4 17:56:21 10° NNW 18:02:13 87° ENE 18:08:08 10° SSE
IRS-P3 4.2 17:57:27 10° SSE 18:02:47 86° WSW 18:08:09 10° NNW
Cosmos 1125 Rocket 3.6 17:57:36 10° NNW 18:02:49 83° WSW 18:08:01 10° SSE
Cosmos 2228 3.9 17:59:40 10° N 18:03:14 26° ENE 18:06:48 10° SE
Cosmos 1356 Rocket 4.0 17:59:56 10° NNW 18:03:50 59° W 18:07:44 10° S
Cosmos 2285 Rocket 4.1 17:57:28 10° NNW 18:03:57 85° ENE 18:10:21 10° SSE
PSLV R/B 3.8 18:00:10 10° SE 18:04:02 41° ENE 18:07:52 10° N
COSMO-SKYMED 1 3.1 18:00:50 10° NNE 18:04:37 34° E 18:08:22 10° SSE
NOSS 3-3 (C) 3.8 18:00:06 10° SSW 18:05:20 72° SE 18:11:41 10° NE
Meteor 1-31 Rocket 4.4 18:06:27 12° ENE 18:06:59 12° ENE 18:08:19 10° NE
Cosmos 1570 Rocket 4.5 18:02:36 10° S 18:07:30 40° ESE 18:12:23 10° NE
Cosmos 2151 Rocket 4.2 18:03:17 10° NNW 18:07:45 63° W 18:12:11 10° S
CZ-2D R/B 3.4 18:04:57 10° SSE 18:08:49 60° ENE 18:12:49 10° N
Cosmos 1455 Rocket 3.1 18:06:55 10° N 18:11:07 51° ENE 18:15:19 10° SSE
YAOGAN 1 2.4 18:08:44 10° SSE 18:12:59 77° ENE 18:17:15 10° NNW
Cosmos 1607 4.1 18:07:20 10° SW 18:13:28 75° NW 18:19:43 10° NE
Cosmos 2263 Rocket 3.6 18:10:15 10° SE 18:13:46 17° E 18:16:41 12° ENE
Cosmos 1980 3.8 18:08:45 10° NNW 18:14:27 84° WSW 18:20:05 10° SSE
Cosmos 1975 Rocket 4.0 18:11:33 10° SE 18:15:08 26° E 18:18:43 10° NNE
USA 234 4.1 18:11:04 10° SE 18:17:26 53° SW 18:23:50 10° WNW
SAR-Lupe-1 4.4 18:14:16 10° S 18:17:49 70° WSW 18:21:25 10° NNW
Cosmos 2237 Rocket 2.3 18:13:55 10° NNW 18:19:37 83° WSW 18:25:19 10° SSE
COSMOS 2428 4.3 18:14:35 10° NW 18:19:53 40° WSW 18:25:09 10° S
USA 290 4.3 18:17:10 10° WSW 18:19:56 27° NW 18:22:44 10° N
DNEPR-1 R/B 3.9 18:19:03 10° NW 18:23:47 69° NE 18:29:27 10° SE
Cosmos 773 Rocket 4.4 18:18:59 10° S 18:23:55 43° ESE 18:28:54 10° NE
SJ-7 4.0 18:20:20 10° SSE 18:23:59 72° ENE 18:27:40 10° N
Spot 4 Rocket 4.0 18:19:39 10° SSE 18:24:45 80° ENE 18:29:53 10° NNW
NOAA 6 4.0 18:20:44 10° SSE 18:25:51 68° ENE 18:31:00 10° N
Okean 1 Rocket 3.7 18:23:11 10° NNW 18:27:31 59° W 18:31:47 10° S
Meteor 1-27 4.2 18:23:30 10° N 18:29:19 75° ENE 18:35:08 10° SSE
ARIANE 5 R/B 4.2 18:24:47 10° SSW 18:29:30 37° W 18:34:12 10° NNW
Cosmos 2208 Rocket 4.3 18:24:54 10° S 18:29:52 45° ESE 18:34:55 10° NE
Terra 3.6 18:31:23 13° NE 18:31:23 13° NE 18:33:22 10° NNE
NOSS 3-3 (A) 3.9 18:26:25 10° SW 18:31:44 75° NW 18:38:13 10° NE
CRYOSAT 2 4.5 18:28:32 10° NNE 18:33:19 52° E 18:38:05 10° SSE
Okean 2 Rocket 4.4 18:31:29 10° NNW 18:35:38 43° W 18:39:46 10° SSW
Meteor 2-17 Rocket 4.5 18:30:39 10° SSE 18:36:30 54° E 18:42:22 10° NNE
Cosmos 44 Rocket 3.5 18:33:53 10° SSW 18:38:39 51° ESE 18:42:35 16° NE
Cosmos 1346 Rocket 3.4 18:35:57 10° SSE 18:39:03 27° E 18:40:09 23° ENE
Cosmos 2221 Rocket 4.0 18:36:12 10° SSW 18:40:39 66° WNW 18:45:10 10° N
Cosmos 1025 Rocket 4.0 18:37:32 10° SSW 18:41:43 49° WNW 18:45:58 10° N
Cosmos 1464 Rocket 4.0 18:35:42 10° N 18:42:02 63° ENE 18:48:15 10° SSE
Cosmos 1602 3.2 18:40:01 10° SSE 18:42:38 40° E 18:43:14 34° ENE
CZ-4C R/B 2.5 18:38:32 10° WSW 18:42:57 54° NW 18:48:40 10° NE
SL-16 R/B 4.5 18:37:56 10° N 18:43:01 28° NW 18:48:07 10° WSW
Cosmos 836 Rocket 4.4 18:40:10 10° SSW 18:45:25 74° ESE 18:50:43 10° NNE
Cosmos 2227 Rocket 2.5 18:40:43 10° S 18:46:03 45° ESE 18:51:25 10° NE
SL-16 R/B 2.3 18:40:40 10° NNW 18:46:14 55° NE 18:50:49 15° SE
Helios 1A Rocket 4.4 18:49:53 14° SSE 18:49:53 14° SSE 18:50:35 10° SSE
NOSS 3-4 (A) 4.1 18:43:23 10° NW 18:50:02 72° SW 18:57:52 10° SSE
NOSS 3-4 (C) 4.1 18:43:39 10° NW 18:50:18 72° SW 18:58:10 10° SSE
Aureole 3 Rocket 4.0 18:49:01 10° NNW 18:52:41 40° W 18:55:43 10° SSW
Cosmos 2150 Rocket 4.0 18:48:32 10° NNW 18:53:43 85° WSW 18:58:51 10° SSE
ATLAS CENTAUR R/B 2.9 18:54:04 10° N 18:54:54 12° NNE 18:54:54 12° NNE
Cosmos 2298 Rocket 4.1 18:52:27 10° NNW 18:57:46 84° WSW 19:03:03 10° SSE
Lacrosse 5 rocket 2.2 18:56:52 10° WNW 19:00:06 32° N 19:01:16 26° NNE
CZ-4 R/B 2.3 19:02:50 27° NE 19:02:50 27° NE 19:05:15 10° N
Resurs 01 Rocket 1.9 19:00:34 10° S 19:04:56 70° WSW 19:09:22 10° NNW
Cosmos 1782 2.3 19:02:35 10° N 19:06:12 82° E 19:09:32 12° SSE
ATLAS 2AS CENTAUR R/B 4.0 19:01:44 10° WNW 19:07:36 29° N 19:11:46 16° NE
CZ-4B R/B 3.8 19:11:59 33° ENE 19:12:27 33° ENE 19:17:09 10° N
CSL-04 Debris 4.2 19:12:12 22° SE 19:15:38 57° ENE 19:20:57 10° N
CZ-4B DEB 4.4 19:14:53 32° ESE 19:17:03 49° ENE 19:22:18 10° N
ERS-1 Rocket 3.7 19:20:01 33° NE 19:20:01 33° NE 19:24:05 10° N
CSL-04 Rocket 3.5 19:17:14 21° SSE 19:20:48 66° ENE 19:26:03 10° N
ARIANE 6 FM1 Upper Stage 2.4 19:16:56 10° NW 19:20:54 87° NE 19:21:31 63° SE
USA 267 3.5 19:17:49 24° ENE 19:21:54 65° NNW 19:28:21 10° W
RESURS DK-1 3.5 19:22:07 10° NNW 19:24:44 28° NNE 19:24:44 28° NNE
Cosmos 2297 Rocket 3.1 19:25:10 10° SW 19:30:37 48° NW 19:36:08 10° NNE
Cosmos 2058 4.0 19:27:56 10° S 19:29:54 29° S 19:29:54 29° S
SJ-6B 3.7 19:29:05 10° S 19:32:21 42° W 19:35:41 10° NNW
Cosmos 1943 3.4 19:27:25 10° NNW 19:32:59 50° NE 19:33:43 47° ENE
Tiangong 0.6 19:31:42 10° SW 19:32:34 13° SSW 19:32:34 13° SSW
SPOT 5 2.8 19:31:23 32° SSE 19:33:44 80° ENE 19:38:54 10° NNW
Tsikada Rocket 3.9 19:29:52 10° S 19:35:50 57° E 19:41:54 10° NNE
Okean O Rocket 3.7 19:39:03 15° NNE 19:39:03 15° NNE 19:39:59 10° N
MOS 1 4.3 19:38:44 51° E 19:39:29 56° ENE 19:45:02 10° N
Meteor 1-31 Rocket 3.3 19:40:27 46° NNW 19:40:27 46° NNW 19:43:01 10° NNW
COSMO-SKYMED 1 4.4 19:36:15 10° N 19:39:49 29° WNW 19:43:21 10° SW
Cosmos 2228 4.5 19:36:27 10° NNW 19:40:18 36° W 19:44:09 10° SSW
Cosmos 1544 Rocket 3.8 19:39:38 10° NNW 19:43:57 66° W 19:46:04 29° S
Cosmos 2219 3.8 19:41:34 10° S 19:45:34 40° SSE 19:45:34 40° SSE
CZ-4B R/B 4.3 19:47:52 53° SW 19:48:24 59° W 19:52:14 10° NNW
Cosmos 1603 4.5 19:43:28 10° NNW 19:48:05 35° NE 19:48:05 35° NE
Cosmos 1975 Rocket 4.4 19:48:39 10° SW 19:52:42 38° WNW 19:56:45 10° N
ADEOS 3.5 19:53:50 65° NE 19:53:50 65° NE 19:58:39 10° N
Cosmos 2263 Rocket 2.1 19:51:09 10° SSW 19:56:51 87° ESE 19:58:28 49° NNE
Cosmos 1634 Rocket 3.9 20:00:39 10° N 20:07:01 86° W 20:09:11 44° S
Feng Yun 1-1 Rocket 4.3 20:06:21 51° S 20:07:55 81° WSW 20:13:53 10° NNW
Terra 3.0 20:10:00 34° N 20:10:00 34° N 20:12:42 10° N
PAYLOAD B 4.2 20:08:29 64° S 20:09:22 81° WSW 20:15:01 10° NNW
Cosmos 972 Rocket 4.2 20:10:21 10° NNW 20:15:19 67° WSW 20:15:24 67° WSW
Cosmos 1833 Rocket 4.5 20:12:19 10° NNW 20:15:10 19° NNE 20:15:10 19° NNE
Cosmos 2344 3.3 20:14:56 10° SW 20:22:35 88° NW 20:24:33 53° NE
Cosmos 2279 Rocket 3.9 20:21:43 10° N 20:27:37 81° NNW 20:27:37 81° NNW
SL-16 R/B 3.8 20:25:10 10° NW 20:30:05 31° WSW 20:32:45 21° SSW
Cosmos 2227 Rocket 3.4 20:24:52 10° WSW 20:30:10 40° NW 20:33:22 22° N
CZ-4C R/B 3.8 20:28:01 10° WNW 20:32:28 27° N 20:33:37 26° N
CZ-4 R/B 3.9 20:37:50 18° NW 20:37:50 18° NW 20:39:12 10° NW
Lacrosse 5 rocket 4.0 20:34:03 10° NW 20:34:41 14° NW 20:34:41 14° NW
CZ-4B R/B 4.2 20:53:50 41° WNW 20:53:50 41° WNW 20:58:00 10° NNW
ATLAS 2AS CENTAUR R/B 3.7 20:53:56 10° NW 20:59:11 37° N 20:59:11 37° N
USA 267 3.8 21:05:09 53° NNW 21:05:09 53° NNW 21:10:51 10° WNW
Cosmos 2263 Rocket 4.3 21:36:51 10° W 21:40:15 23° WNW 21:40:15 23° WNW
